Location: Quebec
(46.8000°N, 71.2500°W)
Time: 11:35:14
(UTC-04:00)

Envisat - Pass Details

Date: 07 October 2017
Orbit: 764 x 766 km, 98.2° (Epoch: 21 October)

Event Time Altitude Azimuth Distance (km) Brightness Sun altitude
Exits shadow 19:38:11 23° 114° (ESE) 1,579 4.0 -15.5°
Maximum altitude 19:40:33 36° 66° (ENE) 1,209 3.6 -15.9°
Drops below altitude 10° 19:45:10 10° 2° (N) 2,313 5.6 -16.6°
Sets 19:47:37 0° 354° (N) 3,244 6.5 -17.1°
